Location: Kielce
(50.8833°N, 20.6167°E)
Time: 21:51:24
(UTC+02:00)

SR - Pass Details

Date: 23 April 2021
Orbit: 573 x 882 km, 66.7° (Epoch: 09 May)

Event Time Altitude Azimuth Distance (km) Brightness Sun altitude
Rises 07:47:15 0° 215° (SW) 3,340 ? 21.0°
Reaches altitude 10° 07:49:38 10° 215° (SW) 2,446 ? 21.4°
Maximum altitude 07:55:21 89° 130° (SE) 875 ? 22.3°
Drops below altitude 10° 08:01:21 10° 38° (NE) 2,549 ? 23.2°
Sets 08:03:52 0° 38° (NE) 3,490 ? 23.6°
